Wind_Speed
24 24 24 22 22 21 21 21 17 13 9 8 10 10 7 6 5 2 8 13 19 21 23 25 29 33 37 39 43 48 53 57 59 63 64 64 65 64 64 61 59 60 59 59 58 56 54 56 56
21 20 20 21 21 21 20 18 19 17 14 12 9 10 10 8 6 4 3 6 8 17 18 22 25 29 33 36 39 43 46 51 56 60 62 65 66 65 67 64 63 64 61 61 61 60 57 58 57
22 20 19 21 21 22 22 21 18 17 17 15 15 12 11 11 9 8 6 5 4 6 14 19 21 23 25 32 37 40 42 45 48 52 58 62 64 67 69 66 67 66 64 64 64 64 60 62 60
20 20 20 20 20 22 22 22 23 20 17 18 17 16 15 13 12 10 10 9 6 5 4 10 16 19 20 25 30 34 38 40 43 46 50 55 60 64 66 68 68 69 67 67 67 66 66 65 63
20 20 20 20 18 17 17 17 16 17 17 16 19 19 16 16 15 14 13 12 10 8 6 5 9 10 13 17 20 25 32 37 40 42 45 48 52 56 61 65 65 66 64 64 66 69 69 69 66
19 19 19 20 17 16 15 14 13 13 14 13 13 17 17 16 18 17 16 15 13 12 10 10 8 9 9 9 13 15 20 25 30 35 37 41 44 47 51 56 62 66 66 65 64 64 67 68 67
18 17 15 16 16 16 14 14 12 11 10 12 8 13 15 14 13 18 19 18 17 15 14 13 13 12 9 9 9 9 10 12 17 24 27 30 33 36 42 44 47 53 59 63 67 67 66 64 64
18 16 12 15 17 15 14 13 12 12 9 9 17 14 12 12 13 14 19 20 20 18 17 16 16 17 16 16 13 12 12 11 10 11 13 15 20 26 30 33 35 38 38 42 48 55 59 60 60
19 16 14 15 17 17 14 14 18 13 8 15 16 18 18 16 11 14 15 17 20 21 20 20 20 19 19 21 21 19 17 15 14 14 14 14 13 16 18 22 25 28 30 33 35 38 41 44 46
21 17 13 14 16 18 17 19 22 23 13 19 19 21 19 18 17 15 15 16 15 17 20 23 23 24 22 22 22 25 23 22 20 18 18 19 18 17 17 17 19 21 24 26 27 28 30 32 35
27 22 18 15 15 18 17 21 27 31 16 19 25 24 25 23 19 19 18 17 18 17 15 15 19 26 28 27 26 25 27 28 28 26 25 25 25 23 22 21 21 21 21 21 23 25 26 27 29
27 27 21 18 15 15 17 23 27 28 17 22 32 32 32 30 27 20 20 20 20 19 23 23 20 19 27 32 30 28 28 29 31 32 32 30 29 29 30 29 27 26 26 25 24 25 24 25 27
27 29 28 24 21 17 18 25 27 36 22 26 28 32 35 33 28 23 19 19 19 19 22 27 26 27 25 28 33 33 31 31 30 31 33 34 35 35 33 33 33 31 31 30 30 28 28 29 27
27 29 30 30 27 25 20 29 24 40 32 33 33 35 36 34 33 28 22 22 23 23 25 31 31 32 32 28 28 35 36 36 34 33 34 34 35 37 38 37 37 36 36 36 35 35 35 35 34
31 28 33 37 33 32 24 31 34 35 34 37 40 38 35 33 34 31 27 24 25 27 29 33 34 35 35 34 31 30 32 36 40 41 42 40 38 38 37 36 38 39 39 40 41 42 42 41 41
36 32 35 42 40 32 29 29 39 38 39 41 45 46 39 37 32 32 37 36 31 29 28 29 32 35 36 34 34 34 33 34 34 36 41 44 44 42 40 39 39 39 41 43 44 46 46 48 48
38 34 36 38 47 42 36 30 38 45 45 44 47 43 38 37 34 35 35 39 40 39 36 34 34 34 34 36 34 34 36 39 39 38 39 40 43 47 48 48 46 44 44 44 44 46 47 49 50
39 38 37 39 48 46 36 32 34 45 45 42 41 40 39 39 39 36 35 38 40 42 44 40 37 37 37 37 38 37 37 38 39 41 43 42 41 41 44 48 50 51 51 51 50 49 48 50 52
44 39 37 41 46 41 38 33 34 35 41 47 48 47 48 47 44 40 37 43 44 44 46 48 42 38 38 39 41 40 41 40 41 42 43 43 43 45 42 41 40 42 46 49 54 58 60 57 57
48 44 47 46 47 44 44 42 48 44 44 48 53 53 56 56 49 47 46 44 43 48 50 50 49 42 40 39 39 38 40 44 46 46 48 49 48 48 47 46 46 47 48 47 48 49 50 54 62
53 52 53 55 51 49 47 46 50 54 53 56 59 57 57 58 57 58 57 52 51 49 48 50 52 45 43 41 44 45 48 50 50 53 54 56 55 54 53 54 53 53 53 53 53 53 54 53 52
61 60 52 49 49 53 53 51 53 57 61 60 59 61 64 63 63 61 63 59 53 50 50 53 54 53 53 52 50 52 51 54 51 53 55 57 59 59 58 58 55 55 60 59 60 58 58 58 59
60 60 60 59 60 54 50 52 54 57 59 59 58 63 67 69 70 77 69 67 71 68 66 59 56 56 57 58 63 66 67 62 65 63 63 62 61 63 62 65 65 64 64 65 65 65 66 63 63
77 73 78 70 68 60 68 68 56 62 68 65 74 75 76 73 78 76 78 80 78 74 75 76 73 67 71 75 73 71 74 71 72 69 71 71 70 69 72 69 69 71 71 72 72 73 67 67 70
92 95 89 85 87 78 85 78 76 79 81 80 81 84 86 89 85 86 89 88 84 84 81 88 84 84 85 85 85 86 82 81 80 81 82 84 77 78 75 77 75 74 75 75 78 78 76 74 73
94 97 102 103 95 95 96 94 85 89 88 89 94 92 93 96 97 98 100 97 95 93 92 91 90 92 92 93 96 96 94 91 90 88 89 88 88 83 83 78 83 79 83 83 82 77 78 78 81
102 103 106 113 109 110 97 99 98 101 99 97 102 101 101 102 105 102 105 105 107 107 101 100 99 99 100 99 97 101 103 100 98 98 97 93 94 96 93 93 88 88 88 92 90 94 92 90 84
112 111 114 114 119 117 114 108 110 107 108 110 106 109 113 111 108 110 113 113 114 115 113 111 109 107 108 107 106 107 107 108 108 109 108 105 103 104 105 104 102 101 97 94 97 98 100 99 100
126 123 122 122 122 121 121 117 114 118 117 116 119 114 118 121 121 118 117 120 122 122 123 122 121 120 119 119 116 115 114 116 114 115 115 116 115 115 116 115 112 113 110 110 108 105 104 105 106
116 114 118 122 122 125 129 129 123 122 125 119 127 134 123 126 131 131 129 126 128 131 129 130 130 129 134 131 130 129 126 123 122 125 124 121 120 122 120 124 125 123 121 120 117 114 109 114 113
Wind_Direction
307 310 312 315 312 310 307 303 300 303 302 312 327 348 0 24 24 285 246 231 239 241 245 238 236 236 235 234 234 234 235 234 232 231 233 234 236 238 239 238 240 239 239 241 242 246 245 244 247
310 308 309 311 313 311 307 303 294 291 293 300 301 308 321 332 346 355 299 261 253 240 235 240 242 238 233 232 234 236 235 234 236 235 234 237 237 239 242 241 243 244 242 245 245 245 245 245 247
308 309 307 310 310 310 311 312 304 288 286 288 293 294 295 303 315 327 315 310 261 257 245 238 243 241 236 233 231 232 233 233 234 236 236 235 237 239 243 243 246 246 247 248 246 246 249 250 251
315 311 311 315 318 312 310 311 314 306 296 286 284 281 285 285 290 296 307 309 301 289 242 236 239 240 241 239 236 233 232 232 233 234 234 236 237 238 240 243 244 248 249 248 248 246 247 251 252
313 319 322 329 328 326 319 313 306 306 305 303 293 284 277 279 277 278 282 292 295 287 289 246 226 233 239 236 236 233 235 236 234 234 234 234 235 237 239 241 242 245 246 247 247 249 249 249 252
313 318 329 331 329 333 333 328 311 314 323 309 304 294 288 282 272 265 270 273 277 283 279 273 268 247 237 238 233 236 236 236 238 239 241 239 237 237 239 240 243 245 245 247 248 250 251 251 253
310 318 334 323 332 334 335 330 328 341 344 327 317 301 303 303 285 269 260 262 268 275 283 281 275 272 269 246 239 234 229 231 235 238 242 245 246 244 243 244 245 246 246 248 248 249 250 251 253
304 315 325 319 326 332 335 331 328 334 355 332 308 317 324 324 315 299 273 254 252 260 266 273 276 275 275 277 265 254 250 244 239 231 233 239 242 245 246 248 249 250 249 249 250 250 252 251 250
296 307 318 311 318 317 318 312 303 324 332 304 303 305 310 309 306 309 309 294 271 255 257 261 266 269 272 272 272 273 269 268 263 262 260 258 252 249 252 249 248 249 251 252 252 252 253 252 252
291 292 296 298 301 303 303 302 300 302 329 295 299 298 299 300 309 308 308 310 306 295 277 268 264 266 266 269 270 270 272 275 274 270 270 270 267 263 263 262 259 258 256 255 253 252 254 253 251
283 282 281 281 278 282 286 288 293 296 307 297 293 293 296 295 296 303 310 311 302 302 297 287 267 257 260 260 264 265 263 265 267 270 273 272 273 275 273 269 268 263 256 258 260 260 255 254 255
277 279 274 277 263 278 280 279 279 290 308 285 286 288 288 288 292 293 296 301 299 295 293 286 283 275 257 250 248 254 258 259 260 260 259 263 266 266 268 270 268 264 263 262 263 258 255 255 260
270 274 272 264 252 267 268 268 275 277 295 282 279 283 283 290 294 299 303 291 283 279 278 277 281 280 279 262 250 244 247 253 258 261 263 262 260 259 259 260 260 261 260 259 261 262 261 261 261
271 272 270 268 260 253 254 271 267 279 283 278 278 277 283 293 300 302 295 281 275 268 266 270 272 272 275 277 260 252 248 248 249 252 255 257 257 256 254 256 256 256 255 255 257 260 261 261 261
265 271 274 273 266 256 256 275 276 275 276 278 273 271 277 285 293 303 297 277 274 267 263 270 274 272 272 274 276 272 257 252 252 251 250 250 251 253 254 254 254 256 257 255 255 256 257 258 258
271 274 273 275 269 263 262 257 275 275 275 274 275 275 276 278 278 284 287 287 282 275 273 269 274 275 272 269 271 272 274 273 265 260 257 254 253 253 253 252 253 253 252 251 252 253 253 255 256
278 281 280 277 273 270 275 260 267 275 271 276 276 275 278 278 275 275 277 280 286 287 278 272 272 273 276 274 270 268 269 270 271 273 270 264 256 252 253 253 252 252 253 253 253 252 253 254 255
275 272 274 275 269 275 277 258 257 268 276 270 272 275 273 279 282 276 270 270 274 279 280 278 271 273 278 277 275 273 271 272 273 269 267 267 268 265 262 259 257 257 255 254 255 256 255 253 253
278 273 277 266 265 264 271 262 257 256 269 276 278 277 282 282 281 276 272 267 265 268 273 277 273 269 273 278 278 273 271 269 269 269 270 268 266 265 261 261 262 262 260 258 256 253 250 250 251
276 276 271 273 264 264 265 266 270 264 263 266 276 283 283 286 275 274 273 273 268 261 261 265 267 267 271 270 270 269 270 272 272 272 271 271 269 267 265 262 260 257 257 255 257 257 258 257 256
282 282 274 269 264 267 265 271 266 259 260 268 273 278 283 281 281 280 283 281 279 273 264 261 258 260 266 266 265 269 273 270 269 269 270 271 269 268 269 269 265 260 258 256 255 255 256 254 254
279 276 269 272 270 263 265 265 269 261 260 269 274 277 276 276 280 281 281 281 275 280 276 272 260 257 259 263 266 263 272 271 269 268 263 264 266 265 264 265 266 262 260 258 259 258 259 259 258
283 272 272 275 275 272 276 268 262 262 261 264 270 275 271 271 275 280 281 278 283 283 282 285 273 261 270 271 263 264 268 267 278 268 261 258 264 265 264 264 260 262 264 264 263 260 257 255 257
293 292 288 282 284 288 282 281 275 259 267 277 274 282 282 282 285 284 278 275 273 277 282 287 282 277 274 274 277 273 273 278 278 271 271 263 263 269 261 260 264 263 262 263 262 263 261 262 262
293 296 293 287 285 286 281 286 294 288 282 281 282 282 281 283 282 284 286 284 282 277 270 271 277 284 282 281 281 278 278 274 274 279 275 271 269 273 268 260 260 257 263 264 260 260 262 262 260
287 287 289 285 288 287 288 292 285 281 280 273 274 275 281 282 282 283 283 278 278 279 277 270 267 266 269 277 277 277 275 275 277 276 276 272 269 267 268 268 264 259 257 264 263 259 260 261 262
288 283 283 287 287 283 282 285 279 278 279 277 275 271 272 280 281 278 276 273 272 275 275 273 272 268 262 263 263 265 267 266 266 269 274 271 267 266 265 265 266 264 264 262 262 266 264 263 263
283 284 283 282 283 282 284 281 283 275 272 275 276 275 272 269 269 275 276 270 270 272 272 270 270 270 265 262 263 263 263 262 263 265 265 265 263 263 264 266 266 265 265 263 262 260 261 265 266
283 282 282 281 282 277 275 275 276 274 273 272 270 273 270 266 267 267 269 270 269 268 269 267 266 267 268 266 262 262 261 259 260 261 263 263 262 264 262 262 261 263 264 263 264 265 263 263 263
281 276 274 276 274 270 273 276 276 270 268 269 266 270 273 262 262 265 269 268 268 264 266 264 263 265 267 266 264 261 262 261 261 262 259 258 259 259 259 260 259 260 259 259 261 262 264 263 263
Height
10813 10810 10807 10805 10804 10802 10802 10801 10802 10802 10802 10802 10800 10799 10798 10798 10797 10798 10797 10797 10795 10795 10795 10796 10796 10798 10800 10803 10806 10810 10814 10818 10822 10825 10827 10830 10833 10836 10839 10845 10848 10850 10853 10857 10860 10861 10864 10865 10867
10810 10808 10806 10804 10802 10799 10798 10798 10797 10798 10798 10799 10799 10798 10797 10796 10795 10795 10795 10795 10795 10794 10793 10793 10793 10794 10795 10798 10800 10803 10806 10810 10814 10817 10820 10823 10826 10828 10831 10837 10840 10841 10847 10849 10852 10855 10857 10858 10860
10807 10806 10804 10803 10801 10798 10795 10794 10793 10794 10795 10796 10796 10796 10795 10794 10793 10793 10793 10792 10791 10791 10791 10790 10790 10791 10792 10793 10794 10796 10799 10802 10805 10808 10811 10815 10817 10820 10822 10827 10830 10834 10838 10840 10844 10846 10848 10849 10853
10805 10803 10801 10800 10798 10796 10794 10792 10790 10790 10791 10792 10792 10793 10792 10792 10791 10790 10789 10789 10789 10788 10788 10788 10788 10788 10789 10789 10790 10791 10793 10795 10797 10800 10802 10806 10809 10812 10814 10816 10821 10823 10828 10831 10833 10838 10840 10842 10845
10802 10800 10799 10798 10797 10794 10792 10790 10788 10787 10787 10788 10787 10787 10788 10788 10788 10786 10786 10785 10785 10785 10785 10785 10786 10786 10785 10786 10786 10787 10788 10790 10791 10793 10795 10798 10801 10804 10807 10810 10812 10814 10817 10820 10824 10827 10831 10834 10836
10798 10798 10797 10795 10793 10793 10791 10789 10787 10786 10786 10784 10783 10782 10782 10783 10783 10783 10782 10781 10781 10781 10781 10782 10783 10783 10782 10782 10783 10784 10784 10785 10787 10788 10790 10791 10793 10796 10798 10801 10804 10806 10809 10811 10815 10817 10820 10824 10826
10795 10794 10794 10792 10790 10789 10789 10787 10786 10785 10783 10781 10781 10779 10779 10779 10778 10777 10777 10778 10778 10778 10778 10779 10779 10779 10779 10779 10780 10780 10780 10781 10782 10784 10785 10786 10787 10789 10791 10793 10796 10797 10800 10803 10805 10808 10810 10813 10815
10793 10792 10791 10789 10787 10787 10785 10783 10783 10782 10782 10780 10777 10777 10778 10777 10775 10774 10773 10772 10773 10774 10775 10774 10774 10774 10775 10775 10775 10776 10777 10777 10778 10779 10781 10782 10783 10784 10785 10787 10788 10790 10792 10794 10796 10798 10800 10803 10805
10790 10789 10788 10787 10785 10783 10783 10782 10778 10780 10780 10776 10776 10775 10774 10774 10773 10771 10771 10770 10770 10770 10770 10771 10771 10770 10770 10771 10771 10772 10773 10773 10774 10774 10775 10776 10777 10778 10780 10781 10781 10783 10784 10786 10788 10789 10791 10792 10794
10786 10785 10785 10784 10783 10780 10780 10778 10775 10773 10776 10772 10772 10770 10770 10770 10770 10771 10769 10768 10767 10767 10767 10768 10767 10767 10767 10766 10767 10767 10767 10767 10768 10769 10770 10771 10771 10772 10773 10775 10776 10777 10778 10778 10780 10782 10784 10785 10786
10781 10781 10781 10779 10778 10776 10776 10775 10771 10767 10771 10768 10765 10765 10764 10764 10766 10767 10767 10766 10765 10764 10763 10761 10761 10762 10761 10762 10761 10761 10761 10761 10762 10762 10763 10763 10764 10765 10767 10768 10769 10770 10772 10773 10774 10774 10776 10778 10780
10776 10775 10776 10775 10775 10773 10772 10770 10766 10763 10766 10766 10760 10757 10757 10758 10760 10763 10763 10763 10761 10761 10757 10755 10755 10754 10753 10753 10754 10754 10754 10755 10755 10755 10755 10756 10757 10758 10759 10760 10762 10763 10764 10765 10768 10769 10770 10772 10773
10771 10769 10769 10770 10770 10771 10768 10763 10763 10754 10761 10757 10755 10752 10750 10752 10755 10757 10758 10758 10757 10755 10751 10748 10747 10747 10747 10746 10746 10746 10747 10747 10749 10748 10749 10750 10750 10750 10751 10752 10753 10755 10757 10758 10759 10761 10763 10764 10765
10766 10764 10763 10762 10764 10764 10764 10758 10760 10747 10752 10749 10748 10745 10745 10747 10748 10751 10752 10750 10748 10747 10745 10743 10743 10741 10740 10740 10739 10740 10740 10740 10741 10741 10741 10741 10741 10741 10743 10744 10745 10746 10747 10749 10751 10752 10753 10754 10756
10758 10761 10757 10753 10755 10757 10761 10753 10750 10747 10746 10740 10738 10740 10741 10743 10743 10745 10743 10741 10740 10739 10739 10737 10736 10736 10734 10734 10734 10733 10732 10733 10732 10732 10732 10732 10732 10733 10735 10735 10736 10737 10738 10739 10741 10743 10745 10746 10747
10753 10756 10752 10743 10744 10750 10752 10752 10738 10738 10736 10733 10729 10729 10736 10736 10740 10740 10735 10733 10733 10732 10731 10730 10728 10727 10726 10727 10726 10725 10725 10725 10724 10723 10723 10723 10724 10725 10726 10726 10727 10728 10728 10729 10730 10732 10734 10736 10737
10748 10751 10747 10743 10730 10740 10745 10744 10732 10724 10727 10726 10721 10723 10724 10726 10729 10731 10731 10729 10726 10723 10721 10721 10720 10718 10719 10718 10717 10716 10714 10713 10715 10714 10713 10713 10713 10714 10715 10716 10716 10717 10719 10719 10719 10720 10722 10724 10726
10738 10740 10739 10738 10726 10728 10734 10733 10731 10718 10717 10715 10713 10714 10715 10715 10716 10721 10721 10719 10718 10716 10713 10711 10710 10709 10709 10708 10708 10705 10704 10704 10704 10705 10703 10704 10704 10705 10706 10706 10707 10708 10708 10708 10710 10712 10712 10712 10712
10727 10729 10729 10727 10722 10724 10721 10723 10720 10718 10711 10704 10704 10704 10706 10707 10708 10706 10707 10708 10706 10706 10704 10703 10701 10699 10698 10697 10697 10697 10694 10693 10691 10692 10693 10694 10694 10694 10695 10695 10696 10697 10697 10698 10697 10697 10697 10699 10699
10713 10715 10716 10715 10712 10712 10713 10716 10709 10708 10702 10696 10691 10694 10698 10699 10695 10694 10694 10695 10694 10692 10692 10691 10689 10689 10687 10686 10685 10684 10683 10683 10682 10682 10680 10679 10682 10682 10683 10683 10684 10683 10684 10684 10684 10686 10686 10688 10686
10699 10700 10700 10700 10698 10697 10701 10701 10698 10696 10690 10685 10683 10686 10686 10682 10681 10680 10680 10681 10680 10678 10679 10678 10678 10677 10675 10674 10673 10672 10672 10670 10670 10669 10669 10667 10667 10667 10668 10669 10670 10669 10669 10668 10668 10670 10671 10674 10674
10684 10676 10681 10684 10683 10683 10683 10687 10683 10680 10677 10677 10677 10676 10670 10666 10666 10666 10664 10665 10665 10665 10665 10664 10664 10662 10662 10661 10659 10658 10657 10657 10655 10654 10654 10652 10651 10651 10652 10652 10654 10652 10652 10654 10653 10654 10656 10660 10659
10665 10664 10662 10664 10667 10668 10666 10668 10669 10662 10661 10664 10660 10658 10656 10654 10651 10649 10649 10647 10647 10647 10646 10647 10647 10647 10647 10647 10645 10643 10642 10641 10641 10638 10637 10637 10636 10634 10634 10635 10636 10636 10635 10636 10638 10637 10637 10640 10641
10641 10642 10643 10642 10644 10654 10645 10642 10654 10648 10644 10650 10641 10640 10635 10634 10633 10631 10630 10628 10626 10624 10625 10625 10625 10627 10626 10623 10624 10623 10623 10620 10619 10620 10621 10619 10618 10617 10617 10617 10618 10620 10618 10616 10618 10618 10621 10624 10624
10615 10614 10615 10616 10615 10631 10615 10627 10633 10626 10621 10620 10616 10615 10612 10608 10607 10606 10604 10604 10604 10605 10605 10599 10600 10600 10599 10598 10598 10597 10598 10600 10598 10598 10597 10595 10595 10596 10595 10600 10598 10598 10598 10597 10598 10599 10599 10601 10604
10594 10590 10582 10573 10594 10596 10595 10605 10611 10594 10598 10594 10584 10584 10586 10582 10581 10580 10577 10575 10575 10578 10579 10578 10578 10573 10571 10571 10570 10571 10570 10571 10572 10571 10572 10572 10573 10572 10572 10575 10577 10577 10577 10577 10577 10579 10580 10579 10581
10572 10564 10556 10543 10556 10549 10580 10578 10577 10564 10566 10564 10560 10558 10557 10556 10550 10551 10548 10545 10542 10543 10546 10547 10548 10548 10547 10545 10543 10541 10539 10541 10542 10542 10543 10543 10545 10547 10547 10548 10551 10553 10554 10553 10553 10556 10557 10556 10559
10535 10539 10531 10524 10507 10512 10529 10541 10543 10538 10529 10530 10528 10524 10522 10524 10521 10519 10515 10514 10510 10507 10510 10512 10514 10516 10515 10514 10514 10514 10513 10511 10509 10507 10508 10513 10517 10516 10517 10519 10521 10522 10526 10526 10527 10529 10531 10532 10535
10506 10509 10495 10485 10487 10474 10471 10489 10512 10502 10495 10497 10490 10491 10487 10483 10480 10482 10481 10478 10478 10477 10474 10474 10476 10477 10477 10477 10477 10478 10478 10480 10481 10480 10479 10479 10479 10481 10485 10489 10492 10492 10493 10494 10497 10499 10501 10504 10507
10471 10470 10465 10453 10454 10447 10439 10434 10451 10462 10462 10456 10454 10449 10446 10446 10446 10442 10440 10439 10439 10440 10437 10437 10438 10439 10438 10437 10439 10440 10439 10439 10442 10443 10444 10446 10447 10449 10452 10452 10454 10458 10462 10467 10469 10468 10469 10472 10477